When you browse on this site, cookies collect data to enhance your experience and personalize the content and advertising you see.
Visit our Privacy Policy to learn more. By continuing to use the site, you agree to this use of cookies and data.
  • In Austria
  • List of Countries
  • For 7 days
  • Water Temperature
  • Weather Map
  • News
  • Weather Widgets
  • user-avatar
    Login

    Hourly Weather Nocaima

    Today, 22 September, Sunday

    Time Temperature Precipitation Wind Pressure Humidity
    00:00 +20°C° 0.1 mm 1 mps 671 mmHg 91%
    01:00 +20°C° 0 mm 1 mps 671 mmHg 90%
    02:00 +20°C° 0.1 mm 1 mps 671 mmHg 90%
    03:00 +20°C° 0.1 mm 1 mps 671 mmHg 89%
    04:00 +20°C° 0.1 mm 1 mps 671 mmHg 89%
    05:00 +20°C° 0 mm 1 mps 671 mmHg 87%
    06:00 +21°C° 0 mm 1 mps 672 mmHg 85%
    07:00 +20°C° 0 mm 0 mps 672 mmHg 84%
    08:00 +24°C° 0.1 mm 1 mps 672 mmHg 78%
    09:00 +26°C° 0.1 mm 1 mps 673 mmHg 72%
    10:00 +28°C° 0.1 mm 1 mps 673 mmHg 67%
    11:00 +28°C° 1.1 mm 1 mps 672 mmHg 70%
    12:00 +27°C° 1.1 mm 1 mps 672 mmHg 73%
    13:00 +27°C° 1.1 mm 1 mps 671 mmHg 77%
    14:00 +27°C° 1.3 mm 1 mps 670 mmHg 76%
    15:00 +27°C° 1.3 mm 1 mps 670 mmHg 76%
    16:00 +27°C° 1.3 mm 1 mps 669 mmHg 76%
    17:00 +26°C° 1.1 mm 1 mps 670 mmHg 80%
    18:00 +24°C° 1.1 mm 1 mps 670 mmHg 84%
    19:00 +22°C° 1.1 mm 1 mps 670 mmHg 89%
    20:00 +22°C° 1.1 mm 1 mps 671 mmHg 89%
    21:00 +21°C° 1.1 mm 1 mps 671 mmHg 90%
    22:00 +21°C° 1.1 mm 1 mps 671 mmHg 90%
    23:00 +21°C° 0.3 mm 1 mps 671 mmHg 90%

    Tomorrow, 23 September, Monday

    Time Temperature Precipitation Wind Pressure Humidity
    00:00 +20°C° 0.3 mm 1 mps 671 mmHg 90%
    01:00 +20°C° 0.3 mm 1 mps 671 mmHg 90%
    02:00 +20°C° 0.1 mm 1 mps 671 mmHg 90%
    03:00 +20°C° 0.1 mm 1 mps 671 mmHg 89%
    04:00 +20°C° 0.1 mm 1 mps 671 mmHg 89%
    05:00 +20°C° 0 mm 1 mps 671 mmHg 87%
    06:00 +21°C° 0 mm 1 mps 672 mmHg 85%
    07:00 +22°C° 0 mm 1 mps 672 mmHg 83%
    08:00 +23°C° 0.2 mm 1 mps 673 mmHg 79%
    09:00 +25°C° 0.2 mm 1 mps 673 mmHg 75%
    10:00 +27°C° 0.2 mm 1 mps 673 mmHg 70%
    11:00 +27°C° 0.5 mm 1 mps 673 mmHg 68%
    12:00 +28°C° 0.5 mm 1 mps 672 mmHg 65%
    13:00 +29°C° 0.5 mm 1 mps 671 mmHg 62%
    14:00 +29°C° 1 mm 1 mps 671 mmHg 66%
    15:00 +28°C° 1 mm 1 mps 670 mmHg 70%
    16:00 +27°C° 1 mm 1 mps 669 mmHg 74%
    17:00 +26°C° 1.4 mm 1 mps 670 mmHg 78%
    18:00 +24°C° 1.4 mm 1 mps 670 mmHg 83%
    19:00 +23°C° 1.4 mm 1 mps 670 mmHg 88%
    20:00 +23°C° 0.7 mm 1 mps 671 mmHg 88%
    21:00 +23°C° 0.7 mm 1 mps 671 mmHg 87%
    22:00 +22°C° 0.7 mm 1 mps 672 mmHg 87%
    23:00 +22°C° 0.3 mm 1 mps 671 mmHg 88%

    Day after tomorrow, 24 September, Tuesday

    Time Temperature Precipitation Wind Pressure Humidity
    00:00 +22°C° 0.3 mm 1 mps 671 mmHg 88%
    01:00 +21°C° 0.3 mm 1 mps 671 mmHg 89%
    02:00 +21°C° 0 mm 1 mps 671 mmHg 88%
    03:00 +21°C° 0 mm 1 mps 671 mmHg 88%
    04:00 +21°C° 0 mm 1 mps 671 mmHg 88%
    05:00 +21°C° 0 mm 1 mps 671 mmHg 87%
    06:00 +22°C° 0 mm 1 mps 672 mmHg 86%
    07:00 +20°C° 0 mm 0 mps 672 mmHg 84%
    08:00 +23°C° 0.3 mm 1 mps 673 mmHg 81%
    09:00 +25°C° 0.3 mm 1 mps 673 mmHg 77%
    10:00 +27°C° 0.3 mm 1 mps 673 mmHg 74%
    11:00 +27°C° 0.5 mm 1 mps 673 mmHg 70%
    12:00 +28°C° 0.5 mm 2 mps 672 mmHg 67%
    13:00 +29°C° 0.5 mm 2 mps 671 mmHg 64%
    14:00 +28°C° 0.5 mm 1 mps 671 mmHg 67%
    15:00 +28°C° 0.5 mm 1 mps 671 mmHg 70%
    16:00 +27°C° 0.5 mm 1 mps 670 mmHg 72%
    17:00 +26°C° 0.7 mm 1 mps 670 mmHg 79%
    18:00 +24°C° 0.7 mm 1 mps 670 mmHg 86%
    19:00 +23°C° 0.7 mm 1 mps 670 mmHg 92%
    20:00 +23°C° 1 mm 1 mps 671 mmHg 92%
    21:00 +22°C° 1 mm 1 mps 671 mmHg 91%
    22:00 +22°C° 1 mm 1 mps 672 mmHg 91%
    23:00 +22°C° 0.7 mm 1 mps 672 mmHg 91%

    25 September, Wednesday

    Time Temperature Precipitation Wind Pressure Humidity
    00:00 +22°C° 0.7 mm 1 mps 671 mmHg 91%
    01:00 +22°C° 0.7 mm 1 mps 671 mmHg 91%
    02:00 +21°C° 0.3 mm 1 mps 671 mmHg 91%
    03:00 +19°C° 0.3 mm 0 mps 671 mmHg 92%
    04:00 +19°C° 0.3 mm 0 mps 671 mmHg 92%
    05:00 +19°C° 0.1 mm 0 mps 671 mmHg 92%
    06:00 +20°C° 0.1 mm 0 mps 672 mmHg 92%
    07:00 +20°C° 0.1 mm 0 mps 672 mmHg 91%
    08:00 +21°C° 0.4 mm 0 mps 673 mmHg 88%
    09:00 +24°C° 0.4 mm 1 mps 673 mmHg 85%
    10:00 +25°C° 0.4 mm 1 mps 673 mmHg 82%
    11:00 +26°C° 1.1 mm 1 mps 672 mmHg 80%
    12:00 +27°C° 1.1 mm 1 mps 672 mmHg 78%
    13:00 +27°C° 1.1 mm 1 mps 671 mmHg 76%
    14:00 +26°C° 1.3 mm 1 mps 671 mmHg 79%
    15:00 +26°C° 1.3 mm 1 mps 670 mmHg 82%
    16:00 +25°C° 1.3 mm 1 mps 670 mmHg 85%
    17:00 +24°C° 1.5 mm 1 mps 670 mmHg 88%
    18:00 +23°C° 1.5 mm 1 mps 670 mmHg 91%
    19:00 +22°C° 1.5 mm 1 mps 670 mmHg 94%
    20:00 +22°C° 0.8 mm 1 mps 671 mmHg 94%
    21:00 +22°C° 0.8 mm 1 mps 671 mmHg 94%
    22:00 +21°C° 0.8 mm 1 mps 672 mmHg 93%
    23:00 +21°C° 0.1 mm 1 mps 672 mmHg 93%

    26 September, Thursday

    Time Temperature Precipitation Wind Pressure Humidity
    00:00 +21°C° 0.1 mm 1 mps 671 mmHg 92%
    01:00 +21°C° 0.1 mm 1 mps 671 mmHg 92%
    02:00 +21°C° 0 mm 1 mps 671 mmHg 91%
    03:00 +21°C° 0 mm 1 mps 670 mmHg 91%
    04:00 +21°C° 0 mm 1 mps 670 mmHg 91%
    05:00 +21°C° 0 mm 1 mps 671 mmHg 90%
    06:00 +20°C° 0 mm 0 mps 672 mmHg 89%
    07:00 +20°C° 0 mm 0 mps 672 mmHg 87%
    08:00 +24°C° 0.2 mm 1 mps 673 mmHg 82%
    09:00 +25°C° 0.2 mm 1 mps 673 mmHg 76%
    10:00 +27°C° 0.2 mm 1 mps 673 mmHg 71%
    11:00 +27°C° 0.6 mm 1 mps 672 mmHg 70%
    12:00 +28°C° 0.6 mm 1 mps 671 mmHg 69%
    13:00 +28°C° 0.6 mm 1 mps 671 mmHg 69%
    14:00 +28°C° 0.6 mm 1 mps 670 mmHg 71%
    15:00 +27°C° 0.6 mm 1 mps 670 mmHg 73%
    16:00 +27°C° 0.6 mm 1 mps 669 mmHg 75%
    17:00 +25°C° 0.5 mm 1 mps 670 mmHg 79%
    18:00 +24°C° 0.5 mm 1 mps 670 mmHg 83%
    19:00 +22°C° 0.5 mm 1 mps 670 mmHg 87%
    20:00 +22°C° 0.2 mm 1 mps 670 mmHg 87%
    21:00 +21°C° 0.2 mm 1 mps 671 mmHg 87%
    22:00 +21°C° 0.2 mm 1 mps 671 mmHg 87%
    23:00 +20°C° 0.2 mm 1 mps 671 mmHg 86%

    27 September, Friday

    Time Temperature Precipitation Wind Pressure Humidity
    00:00 +20°C° 0.2 mm 1 mps 670 mmHg 86%
    01:00 +20°C° 0.2 mm 1 mps 670 mmHg 85%
    02:00 +20°C° 0.1 mm 1 mps 670 mmHg 84%
    03:00 +20°C° 0.1 mm 1 mps 670 mmHg 83%
    04:00 +19°C° 0.1 mm 1 mps 670 mmHg 83%
    05:00 +20°C° 0.1 mm 1 mps 671 mmHg 81%
    06:00 +21°C° 0.1 mm 1 mps 671 mmHg 79%
    07:00 +22°C° 0.1 mm 1 mps 672 mmHg 77%
    08:00 +24°C° 0 mm 1 mps 673 mmHg 71%
    09:00 +26°C° 0 mm 1 mps 673 mmHg 64%
    10:00 +29°C° 0 mm 1 mps 673 mmHg 58%
    11:00 +28°C° 0.9 mm 1 mps 672 mmHg 65%
    12:00 +28°C° 0.9 mm 1 mps 671 mmHg 71%
    13:00 +27°C° 0.9 mm 1 mps 670 mmHg 78%
    14:00 +27°C° 1.5 mm 1 mps 670 mmHg 79%
    15:00 +27°C° 1.5 mm 1 mps 669 mmHg 79%
    16:00 +27°C° 1.5 mm 1 mps 669 mmHg 80%
    17:00 +25°C° 1.1 mm 1 mps 669 mmHg 84%
    18:00 +24°C° 1.1 mm 1 mps 670 mmHg 88%
    19:00 +23°C° 1.1 mm 1 mps 670 mmHg 93%
    20:00 +22°C° 1.6 mm 1 mps 670 mmHg 92%
    21:00 +22°C° 1.6 mm 1 mps 671 mmHg 92%
    22:00 +21°C° 1.6 mm 1 mps 671 mmHg 92%
    23:00 +21°C° 0.5 mm 1 mps 671 mmHg 92%
    Show more